Regional Weather Roundup
Issued by NWS

Home | Current Version | Previous Version | Graphics & Text | Print | Product List | Glossary On
Versions: 1 2 3 4 5 6 7 8 9 10 11 12 13 14 15 16 17 18 19 20 21 22 23 24 25 26 27 28 29 30 31 32 33 34 35 36 37 38 39 40 41 42 43 44 45 46 47 48 49 50
692
ASUS44 KLIX 301410
RWRLA
LOUISIANA WEATHER ROUNDUP
NATIONAL WEATHER SERVICE NEW ORLEANS LA
900 AM CDT THU OCT 30 2014

NOTE: "FAIR" INDICATES FEW OR NO CLOUDS BELOW 12,000 FEET WITH NO
      SIGNIFICANT WEATHER AND/OR OBSTRUCTIONS TO VISIBILITY.
      SKY/WX - SKY CONDITION AND SIGNIFICANT WEATHER.
      TMP - AIR TEMPERATURE.    DP   - DEWPOINT TEMPERATURE.
      RH  - RELATIVE HUMIDITY.  PRES - PRESSURE.
      HX  - HEAT INDEX.         WCI  - WIND CHILL INDEX.

*  THESE STATIONS ARE NOT NWS OR FAA STATIONS AND ARE NOT UNDER
   NWS QUALITY CONTROL.

LAZ040-048-061>063-065-066-069-301500-
SOUTHEAST LOUISIANA

CITY           SKY/WX    TMP DP  RH WIND       PRES   REMARKS
N.O. AUDUBON     N/A     68  46  45 MISG        N/A
N.O. INTL ARPT MOSUNNY   65  46  50 NE23      30.12R
N.O. LAKEFRONT SUNNY     65  49  56 NE17      30.12R
N.O. DOWNTOWN* FAIR      63  41  45 NE6       30.12R
SLIDELL        SUNNY     60  46  59 NE8       30.12R
BATON ROUGE    SUNNY     57  46  66 NE7       30.14R
BOOTHVILLE     SUNNY     70  58  65 N12G18    30.08R
BELLE CHASSE   MOSUNNY   65  45  48 NE9       30.11R
BOGALUSA*        N/A     57  46  65 NE8       30.15R
NEW ROADS*     FAIR      58  47  67 NE5       30.15R
GONZALES*      FAIR      59  48  67 NE5       30.13R
HAMMOND*       NOT AVBL
HOUMA*         SUNNY     64  52  63 NE9       30.10R
PORT FOURCHON* CLOUDY    70  57  64 NE12G18   30.12R

$$

LAZ041-044-053-054-301500-
SOUTHWEST LOUISIANA

CITY           SKY/WX    TMP DP  RH WIND       PRES   REMARKS
LAKE CHARLES   SUNNY     58  48  69 E9        30.14R
LAFAYETTE      SUNNY     58  49  72 NE7       30.14R
PATTERSON      SUNNY     63  52  67 NE12      30.14R
SALT POINT       N/A     63  54  72 VRB5      30.11R
NEW IBERIA     SUNNY     60  48  64 NE8       30.14R
CHENAULT AIRPK NOT AVBL

$$

LAZ027-028-301500-
CENTRAL LOUISIANA

CITY           SKY/WX    TMP DP  RH WIND       PRES   REMARKS
FORT POLK      SUNNY     57  46  65 E7        30.16R
ALEXANDRIA INT SUNNY     52  48  86 CALM      30.15R
ALEXANDRIA     SUNNY     53  49  86 CALM      30.17R

$$

LAZ001-002-301500-
NORTHWEST LOUISIANA

CITY           SKY/WX    TMP DP  RH WIND       PRES   REMARKS
SHREVEPORT     SUNNY     54  51  90 CALM      30.17R
BARKSDALE AFB  SUNNY     51  48  92 N2        30.18R
DTN SHREVEPORT SUNNY     51  50  96 CALM      30.18R FOG

$$

LAZ014-016-301500-
NORTHEAST LOUISIANA

CITY           SKY/WX    TMP DP  RH WIND       PRES   REMARKS
MONROE         SUNNY     52  48  86 N3        30.19R
TALLULAH       SUNNY     54  51  90 CALM      30.17R

$$




USA.gov is the U.S. government's official web portal to all federal, state and local government web resources and services.